Weather History for Harare Kutsaga, Zimbabwe

Change the Weather History Date:

Thursday, December 6, 2012

  Actual Average Record
Temperature  
Mean Temperature 70 °F -  
Max Temperature 77 °F 79 °F - ()
Min Temperature 63 °F 60 °F - ()
Cooling Degree Days 5    
Growing Degree Days 20 (Base 50)    
Moisture  
Dew Point 62 °F    
Average Humidity 79    
Maximum Humidity 100    
Minimum Humidity 52    
Precipitation  
Precipitation 0.00 in 0.23 in - ()
Sea Level Pressure  
Sea Level Pressure 30.16 in    
Wind  
Wind Speed 8 mph ()    
Max Wind Speed 17 mph    
Max Gust Speed -    
Visibility 8.4 miles    
Events      
T = Trace of Precipitation, MM = Missing Value Source: Averaged Metar Reports

Daily Weather History Graph

Daily Weather History Graph

Search for Another Location

Airport:

Trip Planner

Search our weather history database for the weather conditions in past years. The results will help you decide how hot, cold, wet, or windy it might be!

Date:

Astronomy

Dec. 06, 2012 Rise Set
Actual Time 5:11 AM CAT 6:21 PM CAT
Civil Twilight 4:47 AM CAT 6:45 PM CAT
Nautical Twilight 4:19 AM CAT 7:13 PM CAT
Astronomical Twilight 3:50 AM CAT 7:43 PM CAT
Moon No Moon Rise 11:34 AM CAT (12/6)
Length of Visible Light 13h 57m
Length of Day
13h 09m
Waning Gibbous, 52% of the Moon is Illuminated
Dec 6
Waning Gibbous
Dec 6
Last Quarter
Dec 13
New
Dec 20
First Quarter
Dec 28
Full

Hourly Weather History & Observations

Time (CAT) Temp. Dew Point Humidity Pressure Visibility Wind Dir Wind Speed Gust Speed Precip Events Conditions
12:00 AM 64.4 °F 60.8 °F 88% 30.12 in - ESE 5.8 mph - N/A   Clear
1:00 AM 64.4 °F 60.8 °F 88% 30.12 in - East 6.9 mph - N/A   Clear
2:00 AM 66 °F 60 °F 77%  in 16 mi ENE 9.2 mph - -   Partly Cloudy
2:00 AM 66.2 °F 60.8 °F 83% 30.12 in - ENE 9.2 mph - N/A   Clear
3:00 AM 64.4 °F 60.8 °F 88% 30.12 in - ENE 11.5 mph - N/A   Clear
5:00 AM 64.4 °F 62.6 °F 94% 30.12 in 6.2 mi ENE 6.9 mph - N/A   Mostly Cloudy
6:00 AM 64.4 °F 62.6 °F 94% 30.15 in 6.2 mi East 8.1 mph - N/A   Mostly Cloudy
7:00 AM 68.0 °F 62.6 °F 83% 30.18 in 6.2 mi East 8.1 mph - N/A   Scattered Clouds
8:00 AM 72 °F 61 °F 59%  in 16 mi ENE 12.7 mph - -   Scattered Clouds
8:00 AM 71.6 °F 60.8 °F 69% 30.18 in 6.2 mi ENE 12.7 mph - N/A   Scattered Clouds
9:00 AM 73.4 °F 59.0 °F 61% 30.18 in 6.2 mi ENE 12.7 mph - N/A   Mostly Cloudy
10:00 AM 73.4 °F 60.8 °F 65% 30.18 in 6.2 mi ENE 17.3 mph - N/A   Mostly Cloudy
11:00 AM 71.6 °F 62.6 °F 73% 30.18 in 6.2 mi ENE 13.8 mph - N/A   Mostly Cloudy
12:00 PM 71.6 °F 62.6 °F 73% 30.18 in 6.2 mi ENE 13.8 mph - N/A   Mostly Cloudy
1:00 PM 75.2 °F 60.8 °F 61% 30.15 in 6.2 mi ENE 13.8 mph - N/A   Mostly Cloudy
2:00 PM 76 °F 62 °F 52%  in 19 mi ENE 13.8 mph - -   Partly Cloudy
2:00 PM 75.2 °F 60.8 °F 61% 30.12 in 6.2 mi ENE 13.8 mph - N/A   Mostly Cloudy
4:00 PM 69.8 °F 60.8 °F 73% 30.12 in 6.2 mi NE 10.4 mph - N/A   Mostly Cloudy
5:00 PM 69.8 °F 60.8 °F 73% 30.12 in 6.2 mi ENE 5.8 mph - N/A   Mostly Cloudy
6:00 PM 69.8 °F 62.6 °F 78% 30.15 in 6.2 mi SSE 2.3 mph - N/A   Mostly Cloudy
7:00 PM 66.2 °F 64.4 °F 94% 30.18 in 6.2 mi WSW 5.8 mph - N/A   Mostly Cloudy
8:00 PM 66 °F 65 °F 94%  in 19 mi WSW 4.6 mph - -   Scattered Clouds
8:00 PM 66.2 °F 64.4 °F 94% 30.21 in 6.2 mi WSW 4.6 mph - N/A   Mostly Cloudy
9:00 PM 66.2 °F 64.4 °F 94% 30.21 in 6.2 mi WSW 2.3 mph - N/A   Mostly Cloudy
11:00 PM 64.4 °F 64.4 °F 100% 30.24 in 6.2 mi South 4.6 mph - N/A   Mostly Cloudy